{"data":{"norad_id":54185,"epoch":"2026-09-20T07:26:28.728672Z","epoch_age_seconds":105672,"freshness":"FRESH","line1":"1 54185U 22141AE  26263.31005473  .00000365  00000+0  21952-4 0  9991","line2":"2 54185  53.1589 194.6937 0001158  92.6952 267.4183 15.34389097215450","mean_motion":15.34389097,"eccentricity":0.0001158,"inclination_deg":53.1589,"raan_deg":194.6937,"arg_perigee_deg":92.6952,"mean_anomaly_deg":267.4183,"bstar":2.1952e-5,"rev_number":21545,"period_min":93.848424940939,"perigee_km":461.94347336024,"apogee_km":463.52781946515,"semimajor_km":6840.8726464127,"source":"CELESTRAK","updated_at":"2026-09-21T09:00:33.093775Z"}}